Change the Weather History Date:

Tuesday, May 13, 2014

  Actual Average (KDUJ) Record (KDUJ)
Temperature  
Mean Temperature 74 °F 56 °F  
Max Temperature 87 °F 67 °F 86 °F (2014)
Min Temperature 62 °F 45 °F 27 °F (1996)
Degree Days  
Heating Degree Days 0 10  
Month to date heating degree days 148  
Since 1 July heating degree days 6661  
Cooling Degree Days 10 1  
Month to date cooling degree days 1  
Year to date cooling degree days 5  
Growing Degree Days 24 (Base 50)    
Moisture  
Dew Point 62 °F    
Average Humidity 75    
Maximum Humidity 100    
Minimum Humidity 38    
Precipitation  
Precipitation 0.13 in 0.13 in 2.49 in (1997)
Month to date precipitation 1.67  
Sea Level Pressure  
Sea Level Pressure 30.08 in    
Wind  
Wind Speed 6 mph (SSW)    
Max Wind Speed 18 mph    
Max Gust Speed 28 mph    
Visibility 9 miles    
Events Rain , Thunderstorm    
T = Trace of Precipitation, MM = Missing Value Source: NWS Daily Summary

Daily Weather History Graph

Daily Weather History Graph

Search for Another Location

Airport or City:

Trip Planner

Search our weather history database for the weather conditions in past years. The results will help you decide how hot, cold, wet, or windy it might be!

Date:

Astronomy

May. 13, 2014 Rise Set
Actual Time 5:57 AM EDT 8:22 PM EDT
Civil Twilight 5:26 AM EDT 8:54 PM EDT
Nautical Twilight 4:48 AM EDT 9:32 PM EDT
Astronomical Twilight 4:05 AM EDT 10:15 PM EDT
Moon 7:21 PM EDT (5/13) 5:13 AM EDT (5/13)
Length of Visible Light 15h 27m
Length of Day
14h 25m
Waxing Gibbous, 98% of the Moon is Illuminated
May 13
Waxing Gibbous
May 14
Full
May 21
Last Quarter
May 28
New
Jun 5
First Quarter

Hourly Weather History & Observations

Time (EDT) Temp. Heat Index Dew Point Humidity Pressure Visibility Wind Dir Wind Speed Gust Speed Precip Events Conditions
12:54 AM 64.9 °F - 63.0 °F 93% 30.06 in 10.0 mi SSW 6.9 mph - 0.01 in   Mostly Cloudy
2:35 AM 64.9 °F - 63.0 °F 93% 30.09 in 10.0 mi SSW 9.2 mph - 0.01 in Rain , Thunderstorm Light Thunderstorms and Rain
2:54 AM 64.0 °F - 63.0 °F 96% 30.09 in 7.0 mi West 4.6 mph - 0.02 in Rain , Thunderstorm Light Rain
3:05 AM 64.0 °F - 63.0 °F 96% 30.10 in 7.0 mi South 5.8 mph - 0.02 in Rain Light Rain
3:54 AM 63.0 °F - 62.1 °F 97% 30.07 in 7.0 mi NNW 8.1 mph - 0.06 in Rain Light Rain
3:57 AM 63.0 °F - 62.1 °F 97% 30.09 in 1.2 mi NNW 4.6 mph - 0.00 in Rain Light Rain
4:09 AM 63.0 °F - 63.0 °F 100% 30.09 in 3.0 mi Calm Calm - 0.00 in Rain Light Rain
4:54 AM 62.1 °F - 61.0 °F 96% 30.06 in 10.0 mi SW 4.6 mph - 0.00 in   Partly Cloudy
5:54 AM 62.1 °F - 61.0 °F 96% 30.09 in 10.0 mi South 3.5 mph - N/A   Scattered Clouds
6:54 AM 62.1 °F - 61.0 °F 96% 30.11 in 10.0 mi Calm Calm - 0.01 in Rain Light Rain
7:36 AM 62.1 °F - 61.0 °F 96% 30.13 in 10.0 mi East 9.2 mph - 0.03 in Rain , Thunderstorm Light Rain
7:54 AM 63.0 °F - 62.1 °F 97% 30.11 in 10.0 mi Calm Calm - 0.03 in   Overcast
9:54 AM 68.0 °F - 63.0 °F 84% 30.14 in 10.0 mi Calm Calm - N/A   Scattered Clouds
10:54 AM 72.0 °F - 63.0 °F 73% 30.14 in 10.0 mi Calm Calm - N/A   Partly Cloudy
12:54 PM 81.0 °F 82.5 °F 64.0 °F 56% 30.10 in 10.0 mi Variable 5.8 mph - N/A   Clear
1:54 PM 84.0 °F 84.9 °F 63.0 °F 49% 30.08 in 10.0 mi SW 9.2 mph - N/A   Clear
2:54 PM 82.9 °F 83.3 °F 61.0 °F 47% 30.06 in 10.0 mi Variable 4.6 mph - N/A   Scattered Clouds
3:54 PM 86.0 °F 86.1 °F 61.0 °F 43% 30.04 in 10.0 mi SSW 6.9 mph - N/A   Partly Cloudy
4:54 PM 87.1 °F 87.0 °F 61.0 °F 41% 30.03 in 10.0 mi Variable 6.9 mph - N/A   Mostly Cloudy
5:54 PM 86.0 °F 86.3 °F 62.1 °F 44% 30.03 in 10.0 mi South 8.1 mph - N/A   Partly Cloudy
6:54 PM 86.0 °F 85.0 °F 57.9 °F 38% 30.03 in 10.0 mi SW 6.9 mph - N/A   Clear
7:54 PM 82.0 °F 83.0 °F 62.1 °F 51% 30.05 in 10.0 mi South 6.9 mph - N/A   Overcast
8:39 PM 77.0 °F - 62.1 °F 60% 30.10 in 10.0 mi South 18.4 mph 27.6 mph N/A Thunderstorm Thunderstorm
8:54 PM 75.0 °F - 63.0 °F 66% 30.08 in 10.0 mi South 10.4 mph 21.9 mph N/A Thunderstorm Mostly Cloudy
9:33 PM 73.0 °F - 63.0 °F 71% 30.11 in 10.0 mi Calm Calm - N/A   Clear
9:54 PM 73.0 °F - 63.0 °F 71% 30.10 in 10.0 mi SW 4.6 mph - N/A   Clear
10:54 PM 71.1 °F - 63.0 °F 75% 30.09 in 10.0 mi SW 3.5 mph - N/A   Clear
11:54 PM 70.0 °F - 64.0 °F 81% 30.11 in 10.0 mi Calm Calm - N/A   Overcast